BHS292 MTCH-MYNN

Flight info

Callsign BHS292
Flight time 1h 15m
Altitude 24000
Route NOSOX1N NOSOX A756 BODLO/N0458F340 A756 KNSLY DCT ZUMMA
Aircraft B737/M-SDE2E3FGHIRWXY/LB1

Departure

Time 2026-04-19 23:53
Airport Cap Haitien International Airport (MTCH)

Arrival

Time 2026-04-20 01:08
Airport Lynden Pindling International Airport (MYNN)
Time Latitude Longitude Altitude Speed Heading
2026-04-19 23:38 19.73583 -72.19465 16 ft 0 kts 309°
2026-04-19 23:45 19.73583 -72.19471 16 ft 2 kts 272°
2026-04-19 23:45 19.73564 -72.19479 18 ft 4 kts 171°
2026-04-19 23:46 19.73525 -72.19483 15 ft 7 kts 202°
2026-04-19 23:46 19.73478 -72.19504 16 ft 8 kts 188°
2026-04-19 23:46 19.73414 -72.19499 15 ft 10 kts 173°
2026-04-19 23:46 19.73335 -72.19490 14 ft 13 kts 174°
2026-04-19 23:47 19.73246 -72.19504 14 ft 14 kts 212°
2026-04-19 23:47 19.73165 -72.19573 13 ft 16 kts 219°
2026-04-19 23:47 19.73077 -72.19651 13 ft 17 kts 219°
2026-04-19 23:47 19.72987 -72.19727 15 ft 17 kts 219°
2026-04-19 23:48 19.72895 -72.19808 16 ft 18 kts 219°
2026-04-19 23:48 19.72795 -72.19895 15 ft 19 kts 218°
2026-04-19 23:48 19.72692 -72.19984 15 ft 20 kts 219°
2026-04-19 23:48 19.72579 -72.20082 13 ft 22 kts 219°
2026-04-19 23:49 19.72459 -72.20185 13 ft 23 kts 219°
2026-04-19 23:49 19.72333 -72.20295 12 ft 24 kts 219°
2026-04-19 23:49 19.72207 -72.20405 13 ft 23 kts 219°
2026-04-19 23:49 19.72087 -72.20509 12 ft 22 kts 219°
2026-04-19 23:50 19.71972 -72.20607 14 ft 18 kts 219°
2026-04-19 23:50 19.71883 -72.20689 14 ft 15 kts 230°
2026-04-19 23:50 19.71830 -72.20746 14 ft 8 kts 200°
2026-04-19 23:50 19.71810 -72.20729 13 ft 0 kts 75°
2026-04-19 23:51 19.71813 -72.20726 12 ft 2 kts 51°
2026-04-19 23:51 19.71839 -72.20719 14 ft 6 kts 22°
2026-04-19 23:51 19.71850 -72.20711 14 ft 0 kts 35°
2026-04-19 23:52 19.71895 -72.20675 14 ft 36 kts 39°
2026-04-19 23:52 19.72343 -72.20285 13 ft 128 kts 39°
2026-04-19 23:52 19.73188 -72.19546 388 ft 169 kts 40°
2026-04-19 23:53 19.74066 -72.18768 1616 ft 156 kts 40°
2026-04-19 23:53 19.74906 -72.18046 2627 ft 161 kts 40°
2026-04-19 23:53 19.75875 -72.17208 3056 ft 199 kts 40°
2026-04-19 23:53 19.77029 -72.16205 3494 ft 224 kts 40°
2026-04-19 23:54 19.78263 -72.15133 4266 ft 232 kts 37°
2026-04-19 23:54 19.79745 -72.14452 5152 ft 238 kts
2026-04-19 23:54 19.81382 -72.14683 6152 ft 242 kts 336°
2026-04-19 23:54 19.82682 -72.15799 7159 ft 245 kts 306°
2026-04-19 23:55 19.83500 -72.17396 8138 ft 248 kts 294°
2026-04-19 23:55 19.84195 -72.19120 9118 ft 253 kts 293°
2026-04-19 23:55 19.84880 -72.20832 10060 ft 257 kts 294°
2026-04-19 23:55 19.85604 -72.22606 10962 ft 260 kts 294°
2026-04-19 23:56 19.86354 -72.24390 11870 ft 263 kts 297°
2026-04-19 23:56 19.87292 -72.26138 12360 ft 286 kts 302°
2026-04-19 23:56 19.88423 -72.28008 12587 ft 316 kts 303°
2026-04-19 23:56 19.89701 -72.30072 12809 ft 343 kts 303°
2026-04-19 23:57 19.91050 -72.32258 13198 ft 362 kts 303°
2026-04-19 23:57 19.92435 -72.34521 13923 ft 368 kts 303°
2026-04-19 23:57 19.93827 -72.36813 14673 ft 371 kts 303°
2026-04-19 23:57 19.95224 -72.39126 15458 ft 371 kts 303°
2026-04-19 23:58 19.96595 -72.41394 16581 ft 364 kts 303°
2026-04-19 23:58 19.97983 -72.43702 17023 ft 378 kts 303°
2026-04-19 23:58 19.99418 -72.46096 17486 ft 388 kts 303°
2026-04-19 23:58 20.00876 -72.48530 18119 ft 392 kts 303°
2026-04-19 23:59 20.02348 -72.50989 18726 ft 395 kts 303°
2026-04-19 23:59 20.03830 -72.53464 19323 ft 397 kts 304°
2026-04-19 23:59 20.05317 -72.55948 19912 ft 400 kts 304°
2026-04-19 23:59 20.06815 -72.58450 20493 ft 402 kts 304°
2026-04-20 00:00 20.08323 -72.60969 21065 ft 405 kts 304°
2026-04-20 00:00 20.09842 -72.63506 21627 ft 407 kts 304°
2026-04-20 00:00 20.11493 -72.65954 22167 ft 408 kts 311°
2026-04-20 00:00 20.13352 -72.68240 22714 ft 410 kts 314°
2026-04-20 00:01 20.15279 -72.70482 23282 ft 410 kts 314°
2026-04-20 00:01 20.17200 -72.72702 23839 ft 408 kts 314°
2026-04-20 00:01 20.21003 -72.77164 24015 ft 411 kts 314°
2026-04-20 00:02 20.22911 -72.79440 24022 ft 411 kts 314°
2026-04-20 00:02 20.24805 -72.81713 24024 ft 410 kts 313°
2026-04-20 00:02 20.26691 -72.83984 24027 ft 409 kts 313°
2026-04-20 00:02 20.28578 -72.86258 24029 ft 409 kts 313°
2026-04-20 00:03 20.30460 -72.88528 24024 ft 409 kts 313°
2026-04-20 00:03 20.32347 -72.90803 24028 ft 409 kts 313°
2026-04-20 00:03 20.34230 -72.93075 24019 ft 410 kts 313°
2026-04-20 00:03 20.36116 -72.95351 24020 ft 410 kts 313°
2026-04-20 00:04 20.38004 -72.97628 24022 ft 410 kts 313°
2026-04-20 00:04 20.39865 -72.99875 24023 ft 410 kts 313°
2026-04-20 00:04 20.41834 -73.02063 24021 ft 409 kts 318°
2026-04-20 00:04 20.43908 -73.04129 24020 ft 409 kts 319°
2026-04-20 00:05 20.46007 -73.06175 24025 ft 409 kts 319°
2026-04-20 00:05 20.48111 -73.08216 24022 ft 409 kts 319°
2026-04-20 00:05 20.50215 -73.10260 24021 ft 409 kts 319°
2026-04-20 00:05 20.52315 -73.12307 24018 ft 409 kts 319°
2026-04-20 00:06 20.54411 -73.14358 24022 ft 409 kts 319°
2026-04-20 00:06 20.56506 -73.16415 24021 ft 409 kts 319°
2026-04-20 00:06 20.58596 -73.18470 24022 ft 409 kts 319°
2026-04-20 00:06 20.60683 -73.20525 24024 ft 409 kts 319°
2026-04-20 00:07 20.62772 -73.22583 24020 ft 408 kts 319°
2026-04-20 00:07 20.64856 -73.24640 24022 ft 408 kts 319°
2026-04-20 00:07 20.66942 -73.26697 24021 ft 408 kts 319°
2026-04-20 00:07 20.69028 -73.28756 24022 ft 408 kts 319°
2026-04-20 00:08 20.71113 -73.30815 24022 ft 408 kts 319°
2026-04-20 00:08 20.73194 -73.32871 24022 ft 408 kts 319°
2026-04-20 00:08 20.75276 -73.34928 24022 ft 408 kts 319°
2026-04-20 00:08 20.77358 -73.36986 24024 ft 408 kts 319°
2026-04-20 00:09 20.79441 -73.39046 24022 ft 408 kts 319°
2026-04-20 00:09 20.80845 -73.40435 24019 ft 408 kts 319°
2026-04-20 00:09 20.82926 -73.42494 24024 ft 408 kts 319°
2026-04-20 00:09 20.85009 -73.44557 24026 ft 407 kts 318°
2026-04-20 00:10 20.87087 -73.46615 24024 ft 407 kts 318°
2026-04-20 00:10 20.89164 -73.48673 24025 ft 407 kts 318°
2026-04-20 00:10 20.91236 -73.50727 24025 ft 407 kts 318°
2026-04-20 00:10 20.93313 -73.52785 24025 ft 407 kts 318°
2026-04-20 00:11 20.95387 -73.54843 24025 ft 406 kts 318°
2026-04-20 00:11 20.97458 -73.56898 24024 ft 406 kts 318°
2026-04-20 00:11 20.99532 -73.58956 24025 ft 406 kts 318°
2026-04-20 00:11 21.01601 -73.61011 24026 ft 406 kts 318°
2026-04-20 00:12 21.03669 -73.63066 24028 ft 406 kts 318°
2026-04-20 00:12 21.05740 -73.65125 24027 ft 406 kts 318°
2026-04-20 00:12 21.07810 -73.67182 24024 ft 406 kts 318°
2026-04-20 00:12 21.09878 -73.69240 24029 ft 406 kts 318°
2026-04-20 00:13 21.11947 -73.71298 24030 ft 406 kts 318°
2026-04-20 00:13 21.14016 -73.73358 24029 ft 406 kts 318°
2026-04-20 00:13 21.16084 -73.75418 24029 ft 406 kts 318°
2026-04-20 00:13 21.18152 -73.77478 24032 ft 406 kts 318°
2026-04-20 00:14 21.20217 -73.79536 24028 ft 406 kts 318°
2026-04-20 00:14 21.22285 -73.81598 24031 ft 406 kts 318°
2026-04-20 00:14 21.24344 -73.83652 24031 ft 406 kts 318°
2026-04-20 00:14 21.26410 -73.85714 24033 ft 406 kts 318°
2026-04-20 00:15 21.28480 -73.87779 24030 ft 405 kts 318°
2026-04-20 00:15 21.30546 -73.89843 24036 ft 405 kts 318°
2026-04-20 00:15 21.32604 -73.91899 24028 ft 405 kts 318°
2026-04-20 00:15 21.34667 -73.93961 24030 ft 405 kts 318°
2026-04-20 00:16 21.36726 -73.96020 24031 ft 405 kts 317°
2026-04-20 00:16 21.38788 -73.98083 24035 ft 405 kts 317°
2026-04-20 00:16 21.40849 -74.00145 24031 ft 405 kts 317°
2026-04-20 00:16 21.42905 -74.02203 24033 ft 405 kts 317°
2026-04-20 00:17 21.44964 -74.04266 24037 ft 405 kts 317°
2026-04-20 00:17 21.47022 -74.06328 24037 ft 405 kts 317°
2026-04-20 00:17 21.49079 -74.08389 24036 ft 405 kts 317°
2026-04-20 00:17 21.51138 -74.10453 24035 ft 405 kts 317°
2026-04-20 00:18 21.53193 -74.12515 24032 ft 405 kts 317°
2026-04-20 00:18 21.55251 -74.14580 24036 ft 405 kts 317°
2026-04-20 00:18 21.57308 -74.16645 24036 ft 405 kts 317°
2026-04-20 00:18 21.59365 -74.18711 24037 ft 405 kts 317°
2026-04-20 00:19 21.61419 -74.20775 24043 ft 405 kts 317°
2026-04-20 00:19 21.63477 -74.22844 24036 ft 405 kts 317°
2026-04-20 00:19 21.65504 -74.24882 24040 ft 405 kts 317°
2026-04-20 00:19 21.67561 -74.26951 24037 ft 405 kts 317°
2026-04-20 00:20 21.69615 -74.29018 24039 ft 405 kts 317°
2026-04-20 00:20 21.71670 -74.31088 24035 ft 405 kts 317°
2026-04-20 00:20 21.73723 -74.33156 24040 ft 405 kts 317°
2026-04-20 00:20 21.75776 -74.35224 24041 ft 405 kts 317°
2026-04-20 00:21 21.77831 -74.37296 24039 ft 404 kts 317°
2026-04-20 00:21 21.79875 -74.39356 24038 ft 404 kts 317°
2026-04-20 00:21 21.81934 -74.41434 24038 ft 405 kts 317°
2026-04-20 00:21 21.83989 -74.43508 24041 ft 405 kts 317°
2026-04-20 00:22 21.86039 -74.45578 24042 ft 405 kts 317°
2026-04-20 00:22 21.88095 -74.47655 24045 ft 405 kts 317°
2026-04-20 00:22 21.90144 -74.49725 24039 ft 405 kts 317°
2026-04-20 00:22 21.92200 -74.51804 24039 ft 405 kts 317°
2026-04-20 00:23 21.94250 -74.53877 24040 ft 405 kts 317°
2026-04-20 00:23 21.96305 -74.55957 24039 ft 405 kts 317°
2026-04-20 00:23 21.98358 -74.58035 24042 ft 405 kts 316°
2026-04-20 00:23 22.00403 -74.60105 24040 ft 405 kts 316°
2026-04-20 00:24 22.02456 -74.62185 24041 ft 405 kts 316°
2026-04-20 00:24 22.04505 -74.64262 24042 ft 405 kts 316°
2026-04-20 00:24 22.06565 -74.66351 24045 ft 405 kts 316°
2026-04-20 00:24 22.08614 -74.68429 24044 ft 405 kts 316°
2026-04-20 00:25 22.10666 -74.70512 24043 ft 405 kts 316°
2026-04-20 00:25 22.12718 -74.72595 24043 ft 405 kts 316°
2026-04-20 00:25 22.14770 -74.74679 24048 ft 405 kts 316°
2026-04-20 00:25 22.16822 -74.76764 24041 ft 405 kts 316°
2026-04-20 00:26 22.18872 -74.78848 24045 ft 405 kts 316°
2026-04-20 00:26 22.20921 -74.80932 24048 ft 405 kts 316°
2026-04-20 00:26 22.22966 -74.83012 24047 ft 405 kts 316°
2026-04-20 00:26 22.25020 -74.85103 24044 ft 405 kts 316°
2026-04-20 00:27 22.27067 -74.87187 24045 ft 405 kts 316°
2026-04-20 00:27 22.29117 -74.89275 24044 ft 405 kts 316°
2026-04-20 00:27 22.31163 -74.91360 24049 ft 405 kts 316°
2026-04-20 00:27 22.33214 -74.93451 24046 ft 405 kts 316°
2026-04-20 00:28 22.35287 -74.95566 24047 ft 405 kts 316°
2026-04-20 00:28 22.37334 -74.97654 24046 ft 405 kts 316°
2026-04-20 00:28 22.39381 -74.99743 24051 ft 405 kts 316°
2026-04-20 00:28 22.41428 -75.01834 24048 ft 405 kts 316°
2026-04-20 00:29 22.43474 -75.03924 24049 ft 405 kts 316°
2026-04-20 00:29 22.45521 -75.06017 24051 ft 405 kts 316°
2026-04-20 00:29 22.47566 -75.08107 24049 ft 405 kts 316°
2026-04-20 00:29 22.49612 -75.10201 24048 ft 405 kts 316°
2026-04-20 00:30 22.51653 -75.12289 24048 ft 405 kts 316°
2026-04-20 00:30 22.53699 -75.14384 24051 ft 405 kts 316°
2026-04-20 00:30 22.55741 -75.16476 24049 ft 405 kts 316°
2026-04-20 00:30 22.57784 -75.18569 24046 ft 405 kts 316°
2026-04-20 00:31 22.59828 -75.20665 24049 ft 405 kts 316°
2026-04-20 00:31 22.61869 -75.22759 24051 ft 405 kts 316°
2026-04-20 00:31 22.63910 -75.24853 24054 ft 405 kts 316°
2026-04-20 00:31 22.65954 -75.26950 24050 ft 405 kts 316°
2026-04-20 00:32 22.67998 -75.29049 24053 ft 405 kts 316°
2026-04-20 00:32 22.70041 -75.31148 24051 ft 405 kts 316°
2026-04-20 00:32 22.72082 -75.33247 24050 ft 405 kts 316°
2026-04-20 00:32 22.74125 -75.35347 24054 ft 405 kts 315°
2026-04-20 00:33 22.76167 -75.37447 24051 ft 405 kts 315°
2026-04-20 00:33 22.78207 -75.39547 24051 ft 405 kts 315°
2026-04-20 00:33 22.80251 -75.41651 24052 ft 405 kts 315°
2026-04-20 00:33 22.82296 -75.43758 24054 ft 405 kts 315°
2026-04-20 00:34 22.84337 -75.45862 24054 ft 405 kts 315°
2026-04-20 00:34 22.86375 -75.47962 24050 ft 405 kts 315°
2026-04-20 00:34 22.88419 -75.50071 24050 ft 405 kts 315°
2026-04-20 00:34 22.90457 -75.52174 24051 ft 405 kts 315°
2026-04-20 00:35 22.92501 -75.54284 24052 ft 405 kts 315°
2026-04-20 00:35 22.94540 -75.56390 24054 ft 405 kts 315°
2026-04-20 00:35 22.96581 -75.58498 24049 ft 405 kts 315°
2026-04-20 00:35 22.98621 -75.60607 24049 ft 405 kts 315°
2026-04-20 00:36 23.00658 -75.62714 24051 ft 405 kts 315°
2026-04-20 00:36 23.02698 -75.64824 24053 ft 405 kts 315°
2026-04-20 00:36 23.04736 -75.66933 24054 ft 405 kts 315°
2026-04-20 00:36 23.06775 -75.69044 24054 ft 405 kts 315°
2026-04-20 00:37 23.08815 -75.71159 24055 ft 405 kts 315°
2026-04-20 00:37 23.10854 -75.73272 24057 ft 405 kts 315°
2026-04-20 00:37 23.12917 -75.75411 24051 ft 405 kts 315°
2026-04-20 00:37 23.14956 -75.77526 24053 ft 405 kts 315°
2026-04-20 00:38 23.16997 -75.79644 24051 ft 405 kts 315°
2026-04-20 00:38 23.19033 -75.81757 24054 ft 405 kts 315°
2026-04-20 00:38 23.21071 -75.83874 24054 ft 405 kts 315°
2026-04-20 00:38 23.23110 -75.85993 24054 ft 405 kts 315°
2026-04-20 00:39 23.25147 -75.88111 24055 ft 405 kts 315°
2026-04-20 00:39 23.27182 -75.90228 24054 ft 405 kts 315°
2026-04-20 00:39 23.29220 -75.92349 24053 ft 405 kts 315°
2026-04-20 00:39 23.31255 -75.94467 24057 ft 405 kts 315°
2026-04-20 00:40 23.33289 -75.96585 24058 ft 405 kts 315°
2026-04-20 00:40 23.35323 -75.98704 24054 ft 405 kts 315°
2026-04-20 00:40 23.37357 -76.00825 24058 ft 405 kts 315°
2026-04-20 00:40 23.39386 -76.02941 24055 ft 405 kts 315°
2026-04-20 00:41 23.41419 -76.05061 24056 ft 404 kts 315°
2026-04-20 00:41 23.43448 -76.07180 24056 ft 404 kts 315°
2026-04-20 00:41 23.45481 -76.09303 24057 ft 404 kts 315°
2026-04-20 00:41 23.47509 -76.11422 24058 ft 404 kts 315°
2026-04-20 00:42 23.49536 -76.13540 24059 ft 404 kts 315°
2026-04-20 00:42 23.51559 -76.15656 24060 ft 404 kts 315°
2026-04-20 00:42 23.53587 -76.17777 24061 ft 404 kts 315°
2026-04-20 00:42 23.55612 -76.19896 24060 ft 404 kts 315°
2026-04-20 00:43 23.57636 -76.22015 24061 ft 403 kts 315°
2026-04-20 00:43 23.59660 -76.24136 24059 ft 403 kts 314°
2026-04-20 00:43 23.61682 -76.26255 24059 ft 403 kts 314°
2026-04-20 00:43 23.63702 -76.28373 24066 ft 403 kts 314°
2026-04-20 00:44 23.65723 -76.30494 24062 ft 403 kts 314°
2026-04-20 00:44 23.67741 -76.32612 24062 ft 403 kts 314°
2026-04-20 00:44 23.69760 -76.34731 24063 ft 403 kts 314°
2026-04-20 00:44 23.71773 -76.36846 24064 ft 402 kts 314°
2026-04-20 00:45 23.73790 -76.38965 24064 ft 402 kts 314°
2026-04-20 00:45 23.75806 -76.41085 24064 ft 402 kts 314°
2026-04-20 00:45 23.77820 -76.43203 24067 ft 402 kts 314°
2026-04-20 00:45 23.79833 -76.45322 24065 ft 402 kts 314°
2026-04-20 00:46 23.81842 -76.47436 24068 ft 402 kts 314°
2026-04-20 00:46 23.83204 -76.48871 24066 ft 402 kts 314°
2026-04-20 00:46 23.85215 -76.50990 24066 ft 402 kts 314°
2026-04-20 00:46 23.87221 -76.53104 24068 ft 401 kts 314°
2026-04-20 00:47 23.89231 -76.55223 24070 ft 401 kts 314°
2026-04-20 00:47 23.91242 -76.57346 24068 ft 401 kts 314°
2026-04-20 00:47 23.93244 -76.59459 24063 ft 401 kts 314°
2026-04-20 00:47 23.95253 -76.61580 24066 ft 401 kts 314°
2026-04-20 00:48 23.97257 -76.63698 24068 ft 401 kts 314°
2026-04-20 00:48 23.99261 -76.65815 24069 ft 401 kts 314°
2026-04-20 00:48 24.01264 -76.67933 24062 ft 401 kts 314°
2026-04-20 00:48 24.03266 -76.70051 24063 ft 400 kts 314°
2026-04-20 00:49 24.05266 -76.72169 24067 ft 400 kts 314°
2026-04-20 00:49 24.07270 -76.74290 24066 ft 400 kts 314°
2026-04-20 00:49 24.09267 -76.76406 24067 ft 400 kts 314°
2026-04-20 00:49 24.11270 -76.78528 24067 ft 400 kts 314°
2026-04-20 00:50 24.13270 -76.80649 24072 ft 400 kts 314°
2026-04-20 00:50 24.15268 -76.82769 24068 ft 400 kts 314°
2026-04-20 00:50 24.17266 -76.84889 24070 ft 400 kts 314°
2026-04-20 00:50 24.19255 -76.87001 24059 ft 394 kts 314°
2026-04-20 00:51 24.21204 -76.89070 24062 ft 387 kts 314°
2026-04-20 00:51 24.23131 -76.91118 24065 ft 386 kts 314°
2026-04-20 00:51 24.25063 -76.93173 24077 ft 388 kts 314°
2026-04-20 00:51 24.27001 -76.95235 23830 ft 391 kts 314°
2026-04-20 00:52 24.28921 -76.97278 23317 ft 389 kts 314°
2026-04-20 00:52 24.30885 -76.99369 22691 ft 385 kts 314°
2026-04-20 00:52 24.32767 -77.01373 22081 ft 380 kts 314°
2026-04-20 00:52 24.34653 -77.03383 21473 ft 376 kts 314°
2026-04-20 00:53 24.36524 -77.05377 20880 ft 373 kts 314°
2026-04-20 00:53 24.38374 -77.07350 20287 ft 370 kts 314°
2026-04-20 00:53 24.40217 -77.09317 19671 ft 369 kts 314°
2026-04-20 00:53 24.42048 -77.11272 19063 ft 367 kts 314°
2026-04-20 00:54 24.43876 -77.13224 18458 ft 366 kts 314°
2026-04-20 00:54 24.45699 -77.15172 17788 ft 365 kts 314°
2026-04-20 00:54 24.47513 -77.17111 17125 ft 363 kts 315°
2026-04-20 00:54 24.49316 -77.19040 16506 ft 361 kts 315°
2026-04-20 00:55 24.51111 -77.20959 15907 ft 358 kts 315°
2026-04-20 00:55 24.52886 -77.22859 15306 ft 356 kts 315°
2026-04-20 00:55 24.54652 -77.24749 14707 ft 353 kts 315°
2026-04-20 00:55 24.56409 -77.26632 14113 ft 352 kts 315°
2026-04-20 00:56 24.58155 -77.28503 13472 ft 350 kts 315°
2026-04-20 00:56 24.59911 -77.30385 12864 ft 347 kts 315°
2026-04-20 00:56 24.61628 -77.32226 12259 ft 343 kts 315°
2026-04-20 00:56 24.63329 -77.34051 11681 ft 340 kts 315°
2026-04-20 00:57 24.65014 -77.35860 11105 ft 337 kts 315°
2026-04-20 00:57 24.66687 -77.37656 10548 ft 335 kts 315°
2026-04-20 00:57 24.68312 -77.39400 10367 ft 320 kts 315°
2026-04-20 00:57 24.69852 -77.41054 10225 ft 306 kts 315°
2026-04-20 00:58 24.71361 -77.42676 10084 ft 293 kts 315°
2026-04-20 00:58 24.72778 -77.44200 9835 ft 286 kts 315°
2026-04-20 00:58 24.74212 -77.45743 9439 ft 284 kts 315°
2026-04-20 00:58 24.75616 -77.47254 9052 ft 281 kts 315°
2026-04-20 00:59 24.77009 -77.48754 8672 ft 279 kts 315°
2026-04-20 00:59 24.78391 -77.50243 8292 ft 277 kts 315°
2026-04-20 00:59 24.79767 -77.51725 7914 ft 276 kts 315°
2026-04-20 00:59 24.81132 -77.53196 7539 ft 274 kts 315°
2026-04-20 01:00 24.82493 -77.54664 7161 ft 273 kts 315°
2026-04-20 01:00 24.83848 -77.56125 6776 ft 273 kts 315°
2026-04-20 01:00 24.85200 -77.57583 6388 ft 272 kts 315°
2026-04-20 01:00 24.86547 -77.59037 5988 ft 271 kts 315°
2026-04-20 01:01 24.87887 -77.60483 5603 ft 269 kts 315°
2026-04-20 01:01 24.89222 -77.61925 5228 ft 268 kts 315°
2026-04-20 01:01 24.90550 -77.63358 4855 ft 267 kts 315°
2026-04-20 01:01 24.91870 -77.64784 4485 ft 265 kts 316°
2026-04-20 01:02 24.93183 -77.66203 4124 ft 263 kts 316°
2026-04-20 01:02 24.94493 -77.67548 3986 ft 252 kts 325°
2026-04-20 01:02 24.96083 -77.68263 3714 ft 248 kts 351°
2026-04-20 01:02 24.97784 -77.68390 3508 ft 239 kts 360°
2026-04-20 01:03 24.99385 -77.68391 3440 ft 222 kts
2026-04-20 01:03 25.00866 -77.68386 3328 ft 205 kts
2026-04-20 01:03 25.02162 -77.67982 3166 ft 190 kts 40°
2026-04-20 01:03 25.02773 -77.66796 3074 ft 173 kts 74°
2026-04-20 01:04 25.03159 -77.65589 2925 ft 163 kts 72°
2026-04-20 01:04 25.03353 -77.64391 2837 ft 159 kts 82°
2026-04-20 01:04 25.03455 -77.63165 2721 ft 161 kts 85°
2026-04-20 01:04 25.03499 -77.61930 2535 ft 161 kts 87°
2026-04-20 01:05 25.03520 -77.60689 2301 ft 161 kts 88°
2026-04-20 01:05 25.03532 -77.59461 2092 ft 159 kts 88°
2026-04-20 01:05 25.03540 -77.58240 1875 ft 160 kts 89°
2026-04-20 01:05 25.03546 -77.57018 1660 ft 159 kts 88°
2026-04-20 01:06 25.03552 -77.55806 1452 ft 158 kts 88°
2026-04-20 01:06 25.03558 -77.54599 1249 ft 158 kts 88°
2026-04-20 01:06 25.03565 -77.53395 1048 ft 156 kts 88°
2026-04-20 01:06 25.03575 -77.52221 879 ft 147 kts 88°
2026-04-20 01:07 25.03586 -77.51108 645 ft 142 kts 88°
2026-04-20 01:07 25.03584 -77.50050 481 ft 139 kts 90°
2026-04-20 01:07 25.03585 -77.48962 232 ft 140 kts 88°
2026-04-20 01:07 25.03599 -77.47883 25 ft 141 kts 89°
2026-04-20 01:08 25.03601 -77.46934 16 ft 92 kts 90°
2026-04-20 01:08 25.03601 -77.46386 17 ft 62 kts 89°
2026-04-20 01:08 25.03643 -77.46061 17 ft 27 kts 46°
2026-04-20 01:08 25.03769 -77.45931 19 ft 23 kts 45°
2026-04-20 01:09 25.03843 -77.45859 17 ft 10 kts 20°
2026-04-20 01:09 25.03902 -77.45889 16 ft 10 kts 316°
2026-04-20 01:09 25.03951 -77.45941 16 ft 10 kts 316°
2026-04-20 01:09 25.03995 -77.45994 16 ft 9 kts 310°
2026-04-20 01:10 25.04038 -77.46046 16 ft 9 kts 314°
2026-04-20 01:10 25.04130 -77.46147 17 ft 10 kts 315°
2026-04-20 01:10 25.04186 -77.46208 17 ft 12 kts 315°
2026-04-20 01:11 25.04251 -77.46279 18 ft 14 kts 315°
2026-04-20 01:11 25.04323 -77.46359 18 ft 15 kts 315°
2026-04-20 01:11 25.04401 -77.46446 17 ft 17 kts 315°
2026-04-20 01:11 25.04486 -77.46539 18 ft 18 kts 315°
2026-04-20 01:12 25.04574 -77.46638 17 ft 18 kts 314°
2026-04-20 01:12 25.04653 -77.46725 19 ft 13 kts 321°
2026-04-20 01:12 25.04733 -77.46713 16 ft 13 kts 40°
2026-04-20 01:12 25.04801 -77.46645 16 ft 12 kts 44°
2026-04-20 01:13 25.04842 -77.46631 16 ft 7 kts 335°
2026-04-20 01:13 25.04854 -77.46638 16 ft 0 kts 330°